sat.trackr.live / text

‹ back to catalog

STARLINK-35534

NORAD 66202 · 2025-243AB

PAYLOAD ACTIVE UNKNOWN

§ Identity

Operator
Country
US
Launch date
2025-10-26
Launch site
AFETR
Launch vehicle
Mass (kg)
RCS (m²)

Purposes: comms

External: N2YO · Heavens-Above · Gunter

§ Orbital elements

Epoch: 2026-05-24T17:05:52.246464Z

Period
94.11 min
Inclination
53.1586°
Eccentricity
0.0001198
Mean motion
15.30168842 rev/d
Perigee alt
474.5 km
Apogee alt
476.1 km
Semi-major
6,853.4 km
B*
1.2100e-3
RAAN
252.0995°
Arg perigee
100.4203°
Mean anomaly
259.6933°
Rev number
3,229

§ Raw data

STARLINK-355341 66202U 25243AB  26144.71241026  .00035614  00000+0  12100-2 0  99962 66202  53.1586 252.0995 0001198 100.4203 259.6933 15.30168842 32298

JSON: /api/v1/satellites/66202 · /tle

For live sub-satellite position, see the globe view (requires WebGL).

§ Visibility from observer

Set your observer location to see the next 7 days of passes ≥ 10°. The values pass through the URL so the page stays shareable.

No JS? Fill the form by hand. The geolocation button needs JavaScript.